Fort Atkinson, Wisconsin, United States (53538)
Lat: 42.93N, Lon: 88.84W
Wx Zone: WIZ064
Local Info
Past Weather Observations for Today

NOTE: This archive is for the closest National Weather Service station to Fort Atkinson. Information may differ from the station used for current weather conditions.

Click here for Long-term Archive

Time Weather Temperature Dewpoint Humidity Pressure Winds Precip Visibility
19:15
Clear
27°F / -3°C 9°F / -13°C 46% 30.18 in
(1022 mb)
S 6.9 mph
(S 11 kph)
- 10SM
18:55
Clear
27°F / -3°C 9°F / -13°C 46% 30.18 in
(1022 mb)
S 8.1 mph
(S 13 kph)
- 10SM
18:35
Clear
25°F / -4°C 9°F / -13°C 50% 30.21 in
(1023 mb)
S 8.1 mph
(S 13 kph)
- 10SM
18:15
Clear
25°F / -4°C 7°F / -14°C 46% 30.21 in
(1023 mb)
S 8.1 mph
(S 13 kph)
- 10SM
17:55
Clear
27°F / -3°C 9°F / -13°C 46% 30.21 in
(1023 mb)
S 6.9 mph
(S 11 kph)
- 10SM
17:35
Clear
27°F / -3°C 9°F / -13°C 46% 30.24 in
(1024 mb)
S 8.1 mph
(S 13 kph)
- 10SM
17:15
Clear
27°F / -3°C 9°F / -13°C 46% 30.24 in
(1024 mb)
S 6.9 mph
(S 11 kph)
- 10SM
16:55
Clear
27°F / -3°C 9°F / -13°C 46% 30.24 in
(1024 mb)
S 5.8 mph
(S 9 kph)
- 10SM
16:35
Clear
27°F / -3°C 9°F / -13°C 46% 30.24 in
(1024 mb)
S 8.1 mph
(S 13 kph)
- 10SM
16:15
Clear
28°F / -2°C 7°F / -14°C 40% 30.24 in
(1024 mb)
S 8.1 mph
(S 13 kph)
- 10SM
15:55
Clear
28°F / -2°C 7°F / -14°C 40% 30.24 in
(1024 mb)
S 10.4 mph
(S 17 kph)
- 10SM
15:35
Clear
30°F / -1°C 7°F / -14°C 37% 30.27 in
(1025 mb)
S 11.5 mph
(S 19 kph)
- 10SM
15:15
Clear
30°F / -1°C 7°F / -14°C 37% 30.27 in
(1025 mb)
S 8.1 mph
(S 13 kph)
- 10SM
14:55
Clear
30°F / -1°C 7°F / -14°C 37% 30.27 in
(1025 mb)
S 9.2 mph
(S 15 kph)
- 10SM
14:35
Clear
30°F / -1°C 7°F / -14°C 37% 30.27 in
(1025 mb)
SSE 10.4 mph
(SSE 17 kph)
- 10SM
14:15
Clear
30°F / -1°C 7°F / -14°C 37% 30.27 in
(1025 mb)
S 11.5 mph
(S 19 kph)
- 10SM
13:55
Clear
30°F / -1°C 7°F / -14°C 37% 30.3 in
(1026 mb)
S 11.5 mph
(S 19 kph)
- 10SM
13:35
Clear
30°F / -1°C 7°F / -14°C 37% 30.3 in
(1026 mb)
S 12.7 mph
(S 20 kph)
- 10SM
13:15
Clear
28°F / -2°C 7°F / -14°C 40% 30.3 in
(1026 mb)
S 11.5 mph
(S 19 kph)
- 10SM
12:55
Clear
28°F / -2°C 7°F / -14°C 40% 30.3 in
(1026 mb)
S 11.5 mph
(S 19 kph)
- 10SM
12:35
Clear
28°F / -2°C 5°F / -15°C 37% 30.33 in
(1027 mb)
S 11.5 mph
(S 19 kph)
- 10SM
12:15
Clear
28°F / -2°C 7°F / -14°C 40% 30.33 in
(1027 mb)
S 9.2 mph
(S 15 kph)
- 10SM
11:55
Clear
27°F / -3°C 5°F / -15°C 39% 30.33 in
(1027 mb)
S 12.7 mph
(S 20 kph)
- 10SM
11:35
Clear
27°F / -3°C 5°F / -15°C 39% 30.33 in
(1027 mb)
S 9.2 mph
(S 15 kph)
- 10SM
11:15
Clear
25°F / -4°C 5°F / -15°C 42% 30.33 in
(1027 mb)
S 9.2 mph
(S 15 kph)
- 10SM
10:55
Clear
25°F / -4°C 7°F / -14°C 46% 30.36 in
(1028 mb)
S 10.4 mph
(S 17 kph)
- 10SM
09:55
Clear
19°F / -7°C 7°F / -14°C 58% 30.39 in
(1029 mb)
S 6.9 mph
(S 11 kph)
- 10SM
09:35
Clear
18°F / -8°C 7°F / -14°C 62% 30.39 in
(1029 mb)
S 6.9 mph
(S 11 kph)
- 10SM
09:15
Clear
18°F / -8°C 7°F / -14°C 62% 30.39 in
(1029 mb)
S 6.9 mph
(S 11 kph)
- 10SM
08:55
Clear
16°F / -9°C 7°F / -14°C 67% 30.39 in
(1029 mb)
S 4.6 mph
(S 7 kph)
- 10SM
08:35
Clear
12°F / -11°C 7°F / -14°C 79% 30.39 in
(1029 mb)
SSE 3.5 mph
(SSE 6 kph)
- 10SM
08:15
Clear
10°F / -12°C 5°F / -15°C 79% 30.39 in
(1029 mb)
S 3.5 mph
(S 6 kph)
- 10SM
07:55
Clear
7°F / -14°C 3°F / -16°C 85% 30.39 in
(1029 mb)
Calm - 10SM
07:35
Clear
5°F / -15°C 1°F / -17°C 85% 30.39 in
(1029 mb)
Calm - 10SM
07:15
Clear
1°F / -17°C -2°F / -19°C 85% 30.39 in
(1029 mb)
Calm - 10SM
06:55
Clear
1°F / -17°C -2°F / -19°C 85% 30.36 in
(1028 mb)
Calm - 10SM
06:35
Clear
1°F / -17°C -2°F / -19°C 85% 30.39 in
(1029 mb)
Calm - 10SM
06:15
Clear
1°F / -17°C -2°F / -19°C 85% 30.39 in
(1029 mb)
Calm - 10SM
05:55
Clear
1°F / -17°C -2°F / -19°C 85% 30.36 in
(1028 mb)
Calm - 10SM
05:35
Clear
1°F / -17°C -2°F / -19°C 85% 30.36 in
(1028 mb)
Calm - 10SM
05:15
Clear
1°F / -17°C -2°F / -19°C 85% 30.36 in
(1028 mb)
Calm - 10SM
04:55
Clear
1°F / -17°C -2°F / -19°C 85% 30.36 in
(1028 mb)
Calm - 10SM
04:35
Clear
1°F / -17°C -2°F / -19°C 85% 30.36 in
(1028 mb)
Calm - 10SM
04:15
Clear
3°F / -16°C -2°F / -19°C 78% 30.36 in
(1028 mb)
Calm - 10SM
03:55
Clear
1°F / -17°C -2°F / -19°C 85% 30.36 in
(1028 mb)
Calm - 10SM
03:35
Clear
3°F / -16°C -2°F / -19°C 78% 30.33 in
(1027 mb)
Calm - 10SM
03:15
Clear
3°F / -16°C -2°F / -19°C 78% 30.33 in
(1027 mb)
Calm - 10SM
02:55
Clear
3°F / -16°C -2°F / -19°C 78% 30.33 in
(1027 mb)
Calm - 10SM
02:35
Clear
3°F / -16°C -2°F / -19°C 78% 30.33 in
(1027 mb)
Calm - 10SM
02:15
Clear
5°F / -15°C °F / -18°C 78% 30.33 in
(1027 mb)
Calm - 10SM
01:55
Clear
3°F / -16°C -2°F / -19°C 78% 30.33 in
(1027 mb)
Calm - 10SM
01:35
Clear
7°F / -14°C °F / -18°C 72% 30.33 in
(1027 mb)
Calm - 10SM
01:15
Clear
5°F / -15°C °F / -18°C 78% 30.3 in
(1026 mb)
Calm - 10SM
00:55
Clear
5°F / -15°C -2°F / -19°C 72% 30.3 in
(1026 mb)
Calm - 10SM
00:35
Clear
5°F / -15°C °F / -18°C 78% 30.3 in
(1026 mb)
Calm - 10SM
00:15
Clear
7°F / -14°C °F / -18°C 72% 30.3 in
(1026 mb)
Calm - 10SM
Time Weather Temperature Dewpoint Humidity Pressure Winds Precip Visibility


Weather for websites

WeatherForYou.com, LLC is not responsible for any damages or problems caused by this service. Current weather conditions are obtained from the closest station including government and personal stations which may have varying degrees of accuracy. Weather forecasts are derived from the NOAA NDFD. Like all things, this site belongs to Jesus Christ... He just trusts me to maintain it. If you have any questions or comments email webmaster@weatherforyou.com

Copyright © 2014, WeatherForYou.com LLC. All rights reserved.